DELTA 1 DEB, 7041

Orbit data source: Space-Track

DELTA 1 DEB, 7041 is space debris in SSO originally from a launch on Tue, 06 Nov 1973 UTC launched from the Air Force Western Test Range (AFWTR). Debris objects in space refer to the collection of defunct objects orbiting the Earth. Examples of debris include non-operational satellites, rocket bodies, and fragments generated from explosions, collisions, or faulty payload assembly.

Loading next visibility...
DELTA 1 DEB details
Identifier
7041, 1973-086AH
Orbit
SSO
Last TLE update20 hours ago
Origin
Flag of USGSFC (US)
ManufacturerUnknown
MissionSpacecraft
Bus & MotorUnknown
MassUnknown
Launch date (UTC)
1973-11-06 (51 years ago)
Launch vehicleUnknown
Launch site
Air Force Western Test Range (AFWTR)
Object type
Payload
Rocket body
Debris
Shape & HBRUnknown
Radar Cross SectionMedium (>0.1 m² and <1 m²)

Expand to show TLE details & history

TLE from 20 hours ago
0 DELTA 1 DEB
1 07041U 73086AH  24360.61468507  .00000930  00000-0  70825-2 0  9994
2 07041 101.6089  41.1071 0192414 158.7071   8.6267 12.37167395287979
Epoch: 2024-12-25T14:45Z
Definitive object data (Epoch: 2024-12-25T14:45:08.79Z)
Latitude12.03459°
Longitude-92.28783°
Altitude1,370.265 km
Speed7.243 km/s
True Right ascension14h 54m 25s
True Declination11° 58' 13"
Sunlit
Object was in daylight at TLE epoch
Visualization TLE readout
Latitude-41.44722°
Longitude96.41559°
Altitude1,677.262 km
Speed6.971 km/s
Apparent Right ascension01h 13m 28s
Apparent Declination-47° 36' 05"
Sunlit
Object is in daylight
Visualization observer readout
Local Sidereal Time10:19:15
Azimuth241.446° WSW
Elevation-58.068°
Doppler factor1
Orbital elements
Apogee altitude1,668.086 km
Perigee altitude1,364.29 km
Semi-major axis7,894.325 km
Eccentricity0.0192414
Inclination101.6089°
RAAN41.1071°
Arg. of periapsis158.7071°
True anomaly8.96547°
Mean anomaly8.6267°
Eccentric anomaly8.79527°
Mean motion3.09436 °/min
BSTAR0.0070825
Orbital period116.34 mins
Loading maneuver chart data...
Loading historical data...
Loading historical data...
Loading historical data...
Loading historical data...
Loading historical data...
Loading historical data...
Loading historical data...

DELTA 1 DEB Visibility forecast

Observer location: undefined°, undefined

Span
Click to sort rows by Start time (UTC) header in descending order
Start Az.
Max El. time (UTC)
Max El. Az.
Max El.
End time (UTC)
End Az.
14 mins2024-12-26 15:43:59.535Z22.661° NE2024-12-26 15:49:59.535Z88.667° E43.756°2024-12-26 15:57:59.535Z190.888° SSW
10 mins2024-12-26 17:38:59.535Z348.076° N2024-12-26 17:43:59.535Z303.004° NW22.324°2024-12-26 17:48:59.535Z259.702° W
12 mins2024-12-27 00:57:59.535Z100.097° ESE2024-12-27 01:03:59.535Z52.552° ENE23.287°2024-12-27 01:09:59.535Z6.073° NNE
16 mins2024-12-27 02:48:59.535Z166.034° S2024-12-27 02:56:59.535Z239.319° WSW44.567°2024-12-27 03:04:59.535Z340.224° N
8 mins2024-12-27 04:48:59.535Z245.321° WSW2024-12-27 04:51:59.535Z266.715° W15.026°2024-12-27 04:56:59.535Z302.28° NW
|